Date_and_time,latitude,longitude,wind_speed,RelWindDirFrom,WindDirFrom,air_pressure,air_temperature,relative_humidity,Temp,platform_speed_wrt_ground,air_pressure_at_mean_sea_level,platform_orientation
2018-08-26 23:40,50.630435,-96.98077,13.3,15.8,34,982.43,17.9,52,19.66,0.0,1008.44,346.7
2018-08-26 23:50,50.630435,-96.98077,14.0,16.6,32,982.17,17.9,51,19.67,0.0,1008.17,346.7
2018-08-27 00:00,50.630435,-96.9807733333333,14.1,16.7,28,982.00,17.9,52,19.66,0.0,1008.00,142.0
2018-08-27 00:10,50.630435,-96.980775,14.9,17.7,21,981.67,17.9,53,19.64,0.0,1007.66,142.0
2018-08-27 00:20,50.630435,-96.9807733333333,15.6,18.7,22,981.51,17.9,55,19.62,0.0,1007.49,142.0
2018-08-27 00:30,50.6304366666667,-96.9807733333333,15.1,17.3,17,981.54,18.0,53,19.62,0.0,1007.51,142.0
2018-08-27 00:40,50.6304016666667,-96.980745,15.1,17.4,19,981.45,18.1,53,19.60,0.0,1007.42,142.0
2018-08-27 00:50,50.6304366666667,-96.9807716666667,16.2,19.0,20,981.19,18.2,53,19.58,0.0,1007.14,142.0
2018-08-27 01:00,50.63044,-96.9807733333333,16.5,20.5,15,981.07,18.1,55,19.55,0.0,1007.01,0.0
2018-08-27 01:10,50.6304416666667,-96.9807733333333,17.7,21.2,11,980.92,18.0,55,19.52,0.0,1006.87,0.0
2018-08-27 01:20,50.63044,-96.9807716666667,18.2,22.4,13,980.75,17.9,57,19.49,0.0,1006.70,0.0
2018-08-27 01:30,50.63044,-96.9807683333333,21.2,25.9,16,980.09,17.8,58,19.45,0.0,1006.02,0.0
2018-08-27 01:40,50.6304383333333,-96.98077,24.4,28.4,16,979.33,17.8,60,19.50,0.0,1005.24,0.0
2018-08-27 01:50,50.6304383333333,-96.98077,23.4,27.4,16,979.86,17.7,60,19.50,0.0,1005.78,0.0
2018-08-27 02:00,50.6304383333333,-96.98077,24.1,28.5,21,979.76,17.7,61,19.48,0.0,1005.68,122.3
2018-08-27 02:10,50.6304383333333,-96.98077,25.2,29.4,23,979.52,17.7,62,19.47,0.0,1005.43,122.3
2018-08-27 02:20,50.63044,-96.9807683333333,26.4,30.0,30,979.24,17.9,60,19.47,0.0,1005.15,122.3
2018-08-27 02:30,50.6304333333333,-96.9807683333333,24.6,30.4,28,979.55,17.9,61,19.45,0.0,1005.45,122.3
2018-08-27 02:40,50.6304316666667,-96.98077,20.8,25.3,14,980.57,17.8,62,19.44,0.0,1006.50,122.3
2018-08-27 02:50,50.6304366666667,-96.98077,25.5,29.9,14,979.37,17.5,64,19.43,0.0,1005.29,122.3
2018-08-27 03:00,50.6304383333333,-96.9807716666667,27.5,31.8,17,978.85,17.3,64,19.42,0.0,1004.76,360.0
2018-08-27 03:10,50.630445,-96.9807766666667,27.4,32.4,17,978.75,17.3,65,19.39,0.0,1004.67,360.0
2018-08-27 03:20,50.6304316666667,-96.98076,21.4,26.8,27,980.63,17.4,63,19.36,0.0,1006.60,360.0
2018-08-27 03:30,50.6304383333333,-96.9807666666667,19.5,25.4,24,981.62,17.4,63,19.30,0.0,1007.61,360.0
2018-08-27 03:40,50.6304383333333,-96.9807683333333,17.3,20.4,18,982.44,17.3,62,19.29,0.0,1008.47,360.0
2018-08-27 03:50,50.63044,-96.9807683333333,20.8,24.1,23,981.45,17.3,63,19.31,0.0,1007.45,360.0
2018-08-27 04:00,50.63044,-96.9807683333333,21.4,25.7,25,981.21,17.1,65,19.33,0.0,1007.21,90.0
2018-08-27 04:10,50.6304416666667,-96.9807683333333,18.2,26.9,18,982.01,16.5,69,19.33,0.0,1008.05,90.0
2018-08-27 04:20,50.6304416666667,-96.98077,13.3,16.8,4,983.32,16.1,69,19.29,0.0,1009.41,90.0
2018-08-27 04:30,50.6304416666667,-96.9807616666667,6.4,13.2,300,983.72,15.0,78,19.26,0.0,1009.88,90.0
2018-08-27 04:40,50.63045,-96.9807666666667,7.2,10.9,290,983.71,13.6,87,19.25,0.0,1009.95,90.0
2018-08-27 04:50,50.6304516666667,-96.9807633333333,6.9,11.3,278,983.83,12.8,92,19.22,0.0,1010.11,90.0
2018-08-27 05:00,50.6304483333333,-96.9807633333333,6.1,9.2,288,983.95,12.5,94,19.21,0.0,1010.26,38.0
2018-08-27 05:10,50.6304466666667,-96.9807633333333,6.9,9.9,301,983.63,12.3,96,19.20,0.0,1009.93,38.0
2018-08-27 05:20,50.6304483333333,-96.980765,8.0,14.1,336,982.79,12.3,97,19.21,0.0,1009.06,38.0
2018-08-27 05:30,50.6304466666667,-96.9807683333333,19.2,26.2,15,980.35,13.1,98,19.24,0.0,1006.53,38.0
2018-08-27 05:40,50.630445,-96.98077,28.4,36.5,21,977.62,14.0,99,19.26,0.0,1003.68,38.0
2018-08-27 05:50,50.630445,-96.9807716666667,33.7,40.0,27,975.68,14.1,98,19.28,0.0,1001.69,38.0
2018-08-27 06:00,50.630445,-96.9807733333333,33.1,40.9,33,975.17,14.5,93,19.25,0.0,1001.18,90.0
2018-08-27 06:10,50.6304433333333,-96.9807733333333,32.4,38.8,32,975.37,14.7,87,19.23,0.0,1001.39,90.0
2018-08-27 06:20,50.6304433333333,-96.980775,28.3,34.3,35,976.32,15.0,86,19.21,0.0,1002.40,90.0
2018-08-27 06:30,50.6304433333333,-96.980775,26.6,33.5,26,977.04,15.0,82,19.16,0.0,1003.22,90.0
2018-08-27 06:40,50.6304433333333,-96.980775,23.1,29.1,21,977.87,15.1,79,19.17,0.0,1004.09,90.0
2018-08-27 06:50,50.6304416666667,-96.980775,19.2,26.4,9,978.69,15.0,81,19.20,0.0,1004.96,90.0
2018-08-27 07:00,50.6304516666667,-96.980795,16.9,23.5,1,979.06,14.8,81,19.14,0.0,1005.35,296.7
2018-08-27 07:10,50.63044,-96.980775,8.3,13.1,331,979.41,13.1,95,19.13,0.0,1005.79,296.7
2018-08-27 07:20,50.6304283333333,-96.980755,11.5,16.0,335,978.97,12.2,99,19.15,0.0,1005.34,296.7
2018-08-27 07:30,50.6304333333333,-96.9807683333333,11.8,16.3,342,978.46,12.0,99,19.17,0.0,1004.79,296.7
2018-08-27 07:40,50.6304283333333,-96.9807516666667,11.2,15.2,327,978.84,11.8,99,19.19,0.0,1005.19,296.7
2018-08-27 07:50,50.6304216666667,-96.9807766666667,11.4,16.2,323,979.15,11.7,99,19.18,0.0,1005.48,296.7
2018-08-27 08:00,50.63045,-96.9807466666667,10.7,17.7,323,979.36,11.5,99,19.16,0.0,1005.71,66.4
2018-08-27 08:10,50.6304583333333,-96.9807566666667,11.7,17.3,329,979.38,11.5,99,19.16,0.0,1005.71,66.4
2018-08-27 08:20,50.6304383333333,-96.980765,12.5,18.5,338,979.19,11.5,99,19.16,0.0,1005.52,66.4
2018-08-27 08:30,50.6304383333333,-96.9807633333333,13.6,20.8,344,978.86,11.6,99,19.15,0.0,1005.17,66.4
2018-08-27 08:40,50.6304366666667,-96.9807633333333,12.3,18.3,340,978.99,11.7,99,19.12,0.0,1005.30,66.4
2018-08-27 08:50,50.630425,-96.980755,11.1,17.1,327,979.28,11.5,99,19.09,0.0,1005.61,66.4
2018-08-27 09:00,50.6304383333333,-96.9807583333333,11.4,17.6,327,979.51,11.4,99,19.11,0.0,1005.94,90.0
2018-08-27 09:10,50.6304383333333,-96.9807633333333,11.1,15.6,328,979.57,11.3,99,19.11,0.0,1006.05,90.0
2018-08-27 09:20,50.6304383333333,-96.9807583333333,11.5,16.4,329,979.53,11.3,99,19.11,0.0,1006.01,90.0
2018-08-27 09:30,50.6304416666667,-96.98076,11.3,17.7,333,979.54,11.3,99,19.10,0.0,1006.04,90.0
2018-08-27 09:40,50.63044,-96.9807633333333,11.0,18.0,336,979.65,11.5,99,19.07,0.0,1006.15,90.0
2018-08-27 09:50,50.63044,-96.9807783333333,10.2,14.0,333,979.87,11.5,99,19.04,0.0,1006.38,90.0
2018-08-27 10:00,50.6304383333333,-96.9807733333333,10.3,17.1,322,980.09,11.5,99,19.05,0.0,1006.60,122.3
2018-08-27 10:10,50.63044,-96.9807733333333,10.6,16.9,317,980.33,11.4,99,19.04,0.0,1006.85,122.3
2018-08-27 10:20,50.6304416666667,-96.9807733333333,9.9,15.2,320,980.51,11.3,99,19.02,0.0,1007.04,122.3
2018-08-27 10:30,50.6304416666667,-96.9807566666667,10.6,14.5,327,980.50,11.3,99,19.01,0.0,1007.03,122.3
2018-08-27 10:40,50.6304366666667,-96.980755,10.4,15.8,323,980.54,11.2,99,18.98,0.0,1007.08,122.3
2018-08-27 10:50,50.6304383333333,-96.9807533333333,11.2,16.8,324,980.56,11.3,99,18.95,0.0,1007.11,122.3
2018-08-27 11:00,50.63044,-96.98076,11.3,16.0,328,980.58,11.2,99,18.92,0.0,1007.13,216.6
2018-08-27 11:10,50.63044,-96.9807583333333,10.9,16.3,329,980.69,11.2,99,18.93,0.0,1007.25,216.6
2018-08-27 11:20,50.6304416666667,-96.9807633333333,11.9,17.9,331,980.71,11.3,99,18.94,0.0,1007.26,216.6
2018-08-27 11:30,50.6304416666667,-96.980765,11.8,20.6,331,980.76,11.6,99,18.90,0.0,1007.29,216.6
2018-08-27 11:40,50.6304416666667,-96.980765,11.3,15.8,329,980.89,11.5,99,18.87,0.0,1007.42,216.6
2018-08-27 11:50,50.6304416666667,-96.980765,11.3,16.1,334,981.00,11.6,99,18.88,0.0,1007.54,216.6
2018-08-27 12:00,50.6304416666667,-96.980765,11.4,17.2,334,980.93,11.7,98,18.86,0.0,1007.46,270.0
2018-08-27 12:10,50.6304433333333,-96.9807633333333,12.2,16.3,332,980.95,11.7,97,18.80,0.0,1007.49,270.0
2018-08-27 12:20,50.6304366666667,-96.9807516666667,12.5,18.5,331,981.03,11.6,97,18.79,0.0,1007.57,270.0
2018-08-27 12:30,50.63044,-96.98076,10.9,15.7,332,981.20,11.4,99,18.79,0.0,1007.76,270.0
2018-08-27 12:40,50.630445,-96.9807616666667,11.2,18.0,336,981.34,11.5,98,18.78,0.0,1007.90,270.0
2018-08-27 12:50,50.6304283333333,-96.9807583333333,13.4,27.3,350,981.43,12.0,94,18.75,0.0,1007.97,270.0
2018-08-27 13:00,50.6304216666667,-96.9807516666667,23.4,27.5,8,981.23,13.3,83,18.72,0.0,1007.71,152.6
2018-08-27 13:10,50.6304316666667,-96.9807783333333,23.1,27.5,16,981.36,13.5,82,18.70,0.0,1007.82,152.6
2018-08-27 13:20,50.6304366666667,-96.980765,23.3,28.3,13,981.28,13.5,84,18.67,0.0,1007.73,152.6
2018-08-27 13:30,50.6304366666667,-96.9807666666667,24.3,29.6,23,981.16,13.6,81,18.64,0.0,1007.60,152.6
2018-08-27 13:40,50.63044,-96.980765,24.0,29.0,30,981.30,13.8,79,18.61,0.0,1007.74,152.6
2018-08-27 13:50,50.630435,-96.9807733333333,22.7,28.2,25,981.70,13.8,79,18.55,0.0,1008.14,152.6
2018-08-27 14:00,50.6304383333333,-96.9807716666667,22.6,28.0,21,982.01,13.8,79,18.55,0.0,1008.46,270.0
2018-08-27 14:10,50.6304416666667,-96.9807833333333,21.7,27.5,21,982.32,13.9,77,18.51,0.0,1008.78,270.0
2018-08-27 14:20,50.6304316666667,-96.9807733333333,20.6,25.1,23,982.49,14.0,76,18.49,0.0,1008.95,270.0
2018-08-27 14:30,50.6304366666667,-96.980775,20.6,23.6,27,982.75,13.9,76,18.49,0.0,1009.22,270.0
2018-08-27 14:40,50.6304266666667,-96.9807666666667,20.8,24.8,17,982.96,13.9,76,18.47,0.0,1009.41,270.0
2018-08-27 14:50,50.6304283333333,-96.9807733333333,20.4,24.4,18,983.16,13.9,77,18.45,0.0,1009.57,270.0
2018-08-27 15:00,50.6304216666667,-96.9807683333333,21.1,26.1,23,983.30,13.8,77,18.40,0.0,1009.70,154.3
2018-08-27 15:10,50.6304283333333,-96.9807866666667,17.9,21.9,8,983.60,13.7,79,18.42,0.0,1010.01,154.3
2018-08-27 15:20,50.6304383333333,-96.9807483333333,17.1,21.5,3,983.83,13.5,76,18.41,0.0,1010.25,154.3
2018-08-27 15:30,50.6304366666667,-96.9807733333333,17.3,21.4,3,983.97,13.5,72,18.39,0.0,1010.39,154.3
2018-08-27 15:40,50.6304333333333,-96.980765,15.5,24.1,2,984.13,13.5,76,18.38,0.0,1010.56,154.3
2018-08-27 15:50,50.6304366666667,-96.98077,16.9,21.9,13,984.07,13.7,74,18.38,0.0,1010.48,154.3
2018-08-27 16:00,50.630435,-96.980795,17.3,20.9,17,984.16,13.7,74,18.39,0.0,1010.57,297.6
2018-08-27 16:10,50.6304433333333,-96.98078,17.0,20.2,23,984.32,13.8,73,18.40,0.0,1010.72,297.6
2018-08-27 16:20,50.630435,-96.980775,16.7,20.9,23,984.41,13.7,73,18.42,0.0,1010.82,297.6
2018-08-27 16:30,50.6304333333333,-96.9807683333333,15.9,20.0,21,984.39,13.6,75,18.43,0.0,1010.80,297.6
2018-08-27 16:40,50.63043,-96.9807683333333,16.9,20.6,21,984.30,13.7,74,18.43,0.0,1010.71,297.6
2018-08-27 16:50,50.63043,-96.9807666666667,18.3,22.3,19,984.18,13.7,74,18.41,0.0,1010.59,297.6
2018-08-27 17:00,50.63043,-96.9807683333333,17.2,21.8,18,984.37,13.9,73,18.40,0.0,1010.78,360.0
2018-08-27 17:10,50.6304316666667,-96.980785,15.3,19.0,27,984.60,14.0,70,18.39,0.0,1011.02,360.0
2018-08-27 17:20,50.6304333333333,-96.9807916666667,15.4,18.7,32,984.81,14.0,69,18.37,0.0,1011.24,360.0
2018-08-27 17:30,50.6304333333333,-96.9807883333333,14.9,18.4,27,984.97,14.0,70,18.39,0.0,1011.41,360.0
2018-08-27 17:40,50.63044,-96.9807783333333,14.6,18.4,30,985.10,13.9,70,18.41,0.0,1011.53,360.0
2018-08-27 17:50,50.6304383333333,-96.9807833333333,13.6,17.4,25,985.08,14.0,69,18.42,0.0,1011.51,360.0
2018-08-27 18:00,50.6304366666667,-96.9807816666667,15.1,18.3,29,984.91,14.0,69,18.45,0.0,1011.33,318.8
2018-08-27 18:10,50.6304366666667,-96.98078,16.4,20.0,27,984.72,13.9,68,18.47,0.0,1011.14,318.8
2018-08-27 18:20,50.6304366666667,-96.98078,16.9,20.1,28,984.60,13.9,68,18.49,0.0,1011.02,318.8
2018-08-27 18:30,50.630435,-96.98078,16.7,20.8,28,984.54,13.9,70,18.49,0.0,1010.95,318.8
2018-08-27 18:40,50.630435,-96.9807783333333,16.6,20.3,28,984.56,14.0,69,18.48,0.0,1010.97,318.8
2018-08-27 18:50,50.630435,-96.9807783333333,16.3,20.5,28,984.66,14.1,70,18.46,0.0,1011.06,318.8
2018-08-27 19:00,50.630435,-96.980785,17.2,22.3,28,984.59,14.1,70,18.48,0.0,1010.99,90.0
2018-08-27 19:10,50.6304333333333,-96.9807816666667,16.7,20.3,28,984.67,14.1,69,18.48,0.0,1011.08,90.0
2018-08-27 19:20,50.6304316666667,-96.9807783333333,15.2,19.4,25,984.84,14.3,70,18.48,0.0,1011.24,90.0
2018-08-27 19:30,50.6304283333333,-96.9807883333333,15.1,19.2,23,984.91,14.3,69,18.48,0.0,1011.31,90.0
2018-08-27 19:40,50.630425,-96.9807816666667,15.5,21.1,25,984.83,14.3,68,18.47,0.0,1011.23,90.0
2018-08-27 19:50,50.63041,-96.98079,15.3,19.8,26,984.79,14.4,68,18.46,0.0,1011.18,90.0
2018-08-27 20:00,50.6304183333333,-96.980775,15.2,21.1,24,984.78,14.5,67,18.46,0.0,1011.17,194.5
2018-08-27 20:10,50.6304233333333,-96.9807766666667,15.6,20.3,23,984.72,14.6,67,18.45,0.0,1011.11,194.5
2018-08-27 20:20,50.6304466666667,-96.9807783333333,14.8,17.8,25,984.85,14.5,66,18.45,0.0,1011.24,194.5
2018-08-27 20:30,50.63044,-96.980775,14.3,18.3,27,984.70,14.5,65,18.46,0.0,1011.08,194.5
2018-08-27 20:40,50.6304383333333,-96.9807766666667,15.0,18.6,28,984.58,14.5,66,18.46,0.0,1010.95,194.5
2018-08-27 20:50,50.6304383333333,-96.9807783333333,14.8,19.2,25,984.60,14.6,66,18.46,0.0,1010.97,194.5
2018-08-27 21:00,50.6304366666667,-96.9807783333333,14.0,17.9,33,984.87,14.6,66,18.45,0.0,1011.25,0.0
2018-08-27 21:10,50.6304366666667,-96.9807766666667,12.8,16.4,32,984.95,14.6,67,18.46,0.0,1011.32,0.0
2018-08-27 21:20,50.6304366666667,-96.9807766666667,12.7,15.8,33,984.97,14.7,68,18.47,0.0,1011.33,0.0
2018-08-27 21:30,50.63045,-96.9807866666667,13.6,16.8,31,984.99,14.8,65,18.47,0.0,1011.35,0.0
2018-08-27 21:40,50.6304333333333,-96.9807783333333,13.0,17.1,26,984.98,14.8,65,18.48,0.0,1011.33,0.0
2018-08-27 21:50,50.63044,-96.98077,13.2,16.6,31,984.93,14.8,65,18.49,0.0,1011.27,0.0
2018-08-27 22:00,50.63044,-96.9807683333333,13.1,17.0,28,984.93,14.8,64,18.49,0.0,1011.27,66.4
2018-08-27 22:10,50.63044,-96.980765,13.1,17.0,32,984.93,14.8,64,18.49,0.0,1011.28,66.4
2018-08-27 22:20,50.6304383333333,-96.9807616666667,12.2,15.1,25,984.94,14.9,63,18.46,0.0,1011.29,66.4
2018-08-27 22:30,50.6304383333333,-96.9807633333333,11.8,15.2,17,984.99,15.0,62,18.45,0.0,1011.34,66.4
2018-08-27 22:40,50.6304383333333,-96.980765,12.4,15.7,24,985.02,15.0,60,18.45,0.0,1011.36,66.4
2018-08-27 22:50,50.6304466666667,-96.980765,12.1,15.3,26,985.08,15.1,62,18.44,0.0,1011.41,66.4
2018-08-27 23:00,50.6304416666667,-96.9807716666667,11.9,14.5,21,985.20,15.3,61,18.44,0.0,1011.54,9.8
2018-08-27 23:10,50.6304383333333,-96.98077,11.0,14.9,22,985.29,15.3,60,18.45,0.0,1011.62,9.8
2018-08-27 23:20,50.6304366666667,-96.980765,11.0,14.4,19,985.37,15.3,61,18.45,0.0,1011.70,9.8
2018-08-27 23:30,50.6304366666667,-96.9807633333333,10.7,14.8,23,985.34,15.3,61,18.44,0.0,1011.67,9.8
2018-08-27 23:40,50.6304383333333,-96.980765,11.0,15.4,17,985.23,15.2,60,18.42,0.0,1011.55,9.8
2018-08-27 23:50,50.6304366666667,-96.9807683333333,11.8,16.4,20,985.17,15.3,59,18.41,0.0,1011.49,9.8
